Regional Weather Roundup
Issued by NWS Raleigh/Durham, NC

Home | Current Version | Previous Version | Text Only | Print | Product List | Glossary On
Versions: 1 2 3 4 5 6 7 8 9 10 11 12 13 14 15 16 17 18 19 20 21 22 23 24 25 26 27 28 29 30 31 32 33 34 35 36 37 38 39 40 41 42 43 44 45 46 47 48 49 50
000
ASUS42 KRAH 270910
RWRRAH
NORTH CAROLINA WEATHER ROUNDUP
NATIONAL WEATHER SERVICE RALEIGH NC
500 AM EDT FRI MAY 27 2016

NOTE: "FAIR" INDICATES FEW OR NO CLOUDS BELOW 12,000 FEET WITH NO
SIGNIFICANT WEATHER AND/OR OBSTRUCTIONS TO VISIBILITY.

NCZ001-053-055-056-065-067-271000-
WESTERN NORTH CAROLINA

CITY           SKY/WX    TMP DP  RH WIND       PRES   REMARKS
ASHEVILLE      MOCLDY    59  57  93 CALM      30.16F FOG
JEFFERSON      CLOUDY    61  58  90 CALM      30.19F
MORGANTON      CLEAR     61  61 100 NW3       30.17S FOG
HICKORY        CLEAR     66  65  96 S3        30.12S
RUTHERFORDTON  PTCLDY    63  63 100 CALM      30.14R
MOUNT AIRY       N/A     67  65  94 CALM      30.14S FOG
BOONE          PTCLDY    58  58 100 CALM      30.21S
$$

NCZ021-022-025-041-071-084-088-271000-
CENTRAL NORTH CAROLINA

CITY           SKY/WX    TMP DP  RH WIND       PRES   REMARKS
CHARLOTTE      PTCLDY    67  60  78 S5        30.13S
GREENSBORO     PTCLDY    68  60  75 SW6       30.12S
WINSTON-SALEM  CLEAR     68  61  78 CALM      30.13S
RALEIGH-DURHAM MOCLDY    69  60  73 S7        30.14F
FORT BRAGG     CLOUDY    71  63  77 SW2       30.13S
FAYETTEVILLE   CLOUDY    69  63  81 SW5       30.13F
BURLINGTON     CLEAR     68  58  70 CALM      30.12F
LAURINBURG     MOCLDY    64  61  90 E6        30.14F
$$

NCZ011-015-027-028-043-044-047-080-103-271000-
NORTHEASTERN NORTH CAROLINA

CITY           SKY/WX    TMP DP  RH WIND       PRES   REMARKS
ROCKY MT-WILSO CLOUDY    69  65  86 S6        30.15R
GREENVILLE     CLEAR     68  64  88 S5        30.16S
WASHINGTON     CLEAR     64  63  94 CALM      30.16S
ELIZABETH CITY PTCLDY    67  62  84 SW6       30.17R
MANTEO         NOT AVBL
CAPE HATTERAS  CLEAR     70  63  78 S5        30.17R
$$

NCZ078-087-090-091-093-098-101-271000-
SOUTHEASTERN NORTH CAROLINA

CITY           SKY/WX    TMP DP  RH WIND       PRES   REMARKS
LUMBERTON      CLOUDY    68  65  90 CALM      30.13S
GOLDSBORO      CLEAR     67  67 100 CALM      30.13F
KINSTON        CLEAR     65  63  94 CALM      30.16S
KENANSVILLE    PTCLDY    62  61  97 CALM      30.16S
NEW BERN       CLEAR     61  59  93 CALM      30.17R
CHERRY POINT   PTCLDY    60  58  92 CALM      30.16S
BEAUFORT       CLEAR     63  62  97 CALM      30.15F
JACKSONVILLE   CLEAR     63  61  93 NW3       30.15R
WILMINGTON     PTCLDY    64  62  93 N3        30.15S
$$




USA.gov is the U.S. government's official web portal to all federal, state and local government web resources and services.